Regional Weather Roundup
Issued by NWS

Home | Current Version | Previous Version | Text Only | Print | Product List | Glossary Off
Versions: 1 2 3 4 5 6 7 8 9 10 11 12 13 14 15 16 17 18 19 20 21 22 23 24 25 26 27 28 29 30 31 32 33 34 35 36 37 38 39 40 41 42 43 44 45 46 47 48 49 50

321
ASUS43 KIND 240859
RWRIN

WEATHER ROUNDUP FOR INDIANA
NATIONAL WEATHER SERVICE INDIANAPOLIS IN
500 AM EDT TUE APR 24 2018

NOTE: "FAIR" INDICATES FEW OR NO CLOUDS BELOW 12,000 FEET WITH NO
SIGNIFICANT WEATHER AND/OR OBSTRUCTIONS TO VISIBILITY.

* - STATION DOES NOT REPORT WEATHER SUCH AS PRECIPITATION OR FOG.

+ - STATION NOT QUALITY CONTROLLED BY THE NATIONAL WEATHER SERVICE.
    USE DATA WITH CAUTION...ESPECIALLY DEWPOINT AND RELATIVE
    HUMIDITY OBSERVATIONS.

INZ001>003-010>013-019-020-241000-
NORTHWEST INDIANA

CITY           SKY/WX    TMP DP  RH WIND       PRES   REMARKS
KNOX *+        CLOUDY    50  46  87 NE3       30.05S
MONTICELLO +   CLOUDY    50  49  95 NE6       30.02S

$$

LMZ046-743>745-241000-
SOUTHERN LAKE MICHIGAN

STATION/POSITION TIME  TEMP    WIND        PRES    WAVE
                       AIR SEA DIR/SP/G            HT
                 (UTC) (F)     (DEG/KT/KT) (MB)    (FT)
BURNS HARBOR     0840   42        CALM     1018.6S
MICHIGAN CITY    0830   50      50/  5/  6   N/A

$$

INZ004-005-014>016-021>024-241000-
NORTH CENTRAL INDIANA

CITY           SKY/WX    TMP DP  RH WIND       PRES   REMARKS
GOSHEN         CLOUDY    52  47  83 E6        30.06S
ROCHESTER +    CLOUDY    52  48  87 NE3       30.05S
SOUTH BEND     CLOUDY    52  46  80 E6        30.07S
WARSAW +       CLOUDY    50  46  87 E6        30.05S

$$

INZ006>009-017-018-025>027-241000-
NORTHEAST INDIANA

CITY           SKY/WX    TMP DP  RH WIND       PRES   REMARKS
ANGOLA *+      CLOUDY    52  48  87 E8        30.06F
FORT WAYNE     DRIZZLE   51  50  96 E9        30.05F

$$

INZ028-029-035-036-043>045-051>053-241000-
WEST CENTRAL INDIANA

CITY           SKY/WX    TMP DP  RH WIND       PRES   REMARKS
GREENCASTLE +  CLOUDY    50  48  93 E6        29.98S
LAFAYETTE      CLOUDY    51  49  92 NE8       30.01S
TERRE HAUTE    CLOUDY    53  51  93 NE7       29.97S

$$

INZ030>032-037>040-046>048-054>057-064-065-241000-
CENTRAL INDIANA

CITY           SKY/WX    TMP DP  RH WIND       PRES   REMARKS
GREENWOOD *+   CLOUDY    50  48  93 E7        29.98F
INDIANAPOLIS   CLOUDY    52  49  89 NE8       29.98S
-EAGLE CREEK   CLOUDY    52  48  86 E6        29.98F
KOKOMO +       CLOUDY    51  49  92 E7        30.02F
MT COMFORT *+  CLOUDY    50  50 100 E6        29.99F
SHELBYVILLE    LGT RAIN  53  48  83 E13       29.97F
ZIONSVILLE +   CLOUDY    50  49  95 E7        30.00S

$$

INZ033-034-041-042-049-050-058-059-241000-
EAST CENTRAL INDIANA

CITY           SKY/WX    TMP DP  RH WIND       PRES   REMARKS
MUNCIE         CLOUDY    52  49  89 E8        30.00F
RICHMOND +     RAIN      48  48 100 E14       30.01S

$$

INZ060-061-067>069-081>083-085>088-241000-
SOUTHWEST INDIANA

CITY           SKY/WX    TMP DP  RH WIND       PRES   REMARKS
EVANSVILLE     CLOUDY    55  54  96 NE6       29.92F
HUNTINGBURG +  CLOUDY    54  52  93 NE6       29.93S

$$

INZ062-063-066-070>080-084-089>092-241000-
SOUTH CENTRAL AND SOUTHEAST INDIANA

CITY           SKY/WX    TMP DP  RH WIND       PRES   REMARKS
BLOOMINGTON    LGT RAIN  53  50  89 E6        29.95F
SEYMOUR +      LGT RAIN  54  52  94 NE5       29.96S

$$





USA.gov is the U.S. government's official web portal to all federal, state and local government web resources and services.